www.pogodaiklimat.ru

Погода и климат >> Архив погоды >> Россия >> Архангельская область >> Моржовец Остров


ПОГОДА на Моржовец Острове

  • Прогноз погоды на Моржовец Острове
  • Монитор погоды на Моржовец Острове

АРХИВ ПОГОДЫ на Моржовец Острове

Время (UTC), дата Ветер
(напр.,м/с)
 
Видим.   Явления Облачность Т
(С)
Тd
(С)
f
(%)
Тe
(С)
Тes
(С)
Комфортность P
(гПа)
Po
(гПа)
Тmin
(С)
Tmax
(С)
R
(мм)
R24
(мм)
S
(см)
09 11.06 З 11
{15}
н/о н/о +6.7 +5.2 90 +1 +1 1006.0 1004.1
12 11.06 С 12
{18}
н/о н/о +4.9 +4.8 99 -2 -2 1009.7 1007.8
15 11.06 С 12
{18}
н/о н/о +3.1 +2.4 95 -5 -5 1013.8 1011.9
18 11.06 С 11
{19}
н/о н/о +1.9 +1.3 96 -6 -6 1017.2 1015.3
21 11.06 С 10
{15}
н/о н/о +1.9 +1.3 96 -6 -6 1018.2 1016.3
00 12.06 С 10
{16}
н/о н/о +2.8 +1.3 90 -5 -5 1019.2 1017.3
03 12.06 С 11
{14}
н/о н/о +3.8 +2.3 90 -3 -3 1019.8 1017.9
06 12.06 С 11
{16}
н/о н/о +4.2 +2.9 91 -3 -3 1021.0 1019.1
09 12.06 С 12
{18}
н/о н/о +5.2 +2.9 85 -2 -2 1022.6 1020.7
12 12.06 С 13
{19}
н/о н/о +6.7 +2.6 75 0 0 1023.6 1021.7
15 12.06 С 14
{21}
н/о н/о +5.7 +2.0 77 -1 -1 1024.5 1022.6
18 12.06 С 12
{20}
н/о н/о +4.3 +1.3 81 -3 -3 1025.0 1023.1
21 12.06 СЗ 10
{18}
н/о н/о +4.3 +2.2 86 -2 -2 1025.4 1023.5
00 13.06 СЗ 11
{17}
н/о н/о +4.0 +1.2 82 -3 -3 1025.6 1023.7
03 13.06 СЗ 11
{17}
н/о н/о +4.1 +1.6 84 -3 -3 1025.7 1023.8
06 13.06 СЗ 11
{15}
н/о н/о +4.7 +2.4 85 -2 -2 1026.4 1024.5
09 13.06 СЗ 9
{13}
н/о н/о +5.3 +2.5 82 -1 -1 1026.7 1024.8
12 13.06 С 9
{15}
н/о н/о +6.7 +2.8 76 +1 +1 1025.9 1024.0
15 13.06 С 9
{14}
н/о н/о +5.5 +2.3 80 -0 -0 1024.4 1022.5
18 13.06 С 6
{13}
н/о н/о +4.3 +1.8 84 -1 -1 1023.3 1021.4
21 13.06 С 4 н/о н/о +2.6 +1.4 92 -2 -2 1021.9 1020.0
00 14.06 С 6 н/о н/о +3.2 +1.9 91 -3 -3 1020.8 1019.0
03 14.06 СЗ 6 н/о н/о +3.2 +1.2 87 -3 -3 1019.5 1017.7
06 14.06 СЗ 4 н/о н/о +4.0 +1.4 83 -0 -0 1018.0 1016.1
09 14.06 СЗ 3 н/о н/о +4.0 +1.7 85 0 0 1017.3 1015.5
12 14.06 С 5 н/о н/о +4.8 +1.8 81 0 0 1016.0 1014.1
15 14.06 С 8
{14}
н/о н/о +5.1 +2.1 81 -1 -1 1014.6 1012.8
18 14.06 С 7 н/о н/о +4.8 +3.0 88 -1 -1 1013.4 1011.6
21 14.06 СЗ 10
{13}
н/о н/о +4.4 +3.2 92 -2 -2 1012.4 1010.5
00 15.06 СЗ 10
{14}
н/о н/о +4.4 +3.5 94 -2 -2 1011.7 1009.8
03 15.06 СЗ 10
{14}
н/о н/о +5.2 +4.0 92 -1 -1 1011.5 1009.7
06 15.06 С 11
{16}
н/о н/о +5.2 +3.2 87 -2 -2 1012.2 1010.4
09 15.06 С 10
{15}
н/о н/о +5.5 +2.0 78 -1 -1 1013.2 1011.4
12 15.06 С 9
{14}
н/о н/о +5.2 +2.9 85 -1 -1 1013.9 1012.0
15 15.06 С 7
{14}
н/о н/о +5.6 +3.3 85 0 0 1013.2 1011.3
18 15.06 З 5 н/о н/о +4.8 +3.6 92 -0 -0 1011.6 1009.7
21 15.06 З 7 н/о н/о +6.1 +4.6 90 +1 +1 1008.3 1006.5
00 16.06 З 5
{13}
н/о н/о +6.3 +4.9 91 +2 +2 1005.8 1003.9
03 16.06 СЗ 7
{13}
н/о н/о +7.5 +5.3 86 +3 +3 1004.2 1002.4
06 16.06 С 11
{16}
н/о н/о +6.2 +3.7 84 0 0 1005.0 1003.1
09 16.06 С 12
{16}
н/о н/о +6.3 +4.0 85 -0 -0 1006.4 1004.5
12 16.06 С 12
{17}
н/о н/о +6.7 +1.6 70 +1 +1 1006.9 1005.1
15 16.06 С 12
{17}
н/о н/о +6.5 +2.6 76 0 0 1008.0 1006.1
18 16.06 С 7
{17}
н/о н/о +6.1 +2.9 80 +1 +1 1007.9 1006.0
21 16.06 З 7
{13}
н/о н/о +5.4 +3.7 89 -0 -0 1007.8 1005.9
00 17.06 СЗ 7 н/о н/о +4.9 +2.8 86 -1 -1 1007.2 1005.3
03 17.06 СЗ 8 н/о н/о +5.8 +3.1 83 0 0 1007.1 1005.3
06 17.06 СЗ 7 н/о н/о +6.7 +2.6 75 +2 +2 1008.0 1006.1
09 17.06 СЗ 4 н/о н/о +5.9 +2.7 80 +2 +2 1008.7 1006.9
12 17.06 СЗ 2 н/о н/о +6.7 +2.2 73 +5 +5 1008.7 1006.8
15 17.06 С 6 н/о н/о +7.6 +2.5 70 +4 +4 1008.7 1006.9
18 17.06 С 6 н/о н/о +5.9 +2.0 76 +1 +1 1007.9 1006.0
21 17.06 С 6 н/о н/о +4.6 +1.6 81 -1 -1 1007.7 1005.9

 

Местоположение метеостанции Моржовец Остров (Архангельская область, Россия): широта 66.72 долгота 42.48 высота над уровнем моря 16 м.

В архиве по умолчанию представлена погода на Моржовец Острове за последнюю неделю. Архивные данные за месяц целиком и за предыдущие месяцы, начиная с января 2011 года, Вы можете получить, выбрав интересующий диапазон дат из раскрывающегося списка и нажав кнопку "Ввод!".


*Определитесь, кто Вы:
робот инопланетянин человек

Внимание! Время в таблицах - всемирное. Для получения местного времени необходимо прибавить поправку, которая равна 3 ч.

Смотрите также архив погоды в соседних городах и на ближайших метеорологических станциях:

Погода в Абрамовском маяке (Архангельская область, Россия) (51 км)
Погода на Сосновец Острове (Мурманская область, Россия) (84 км)
Погода в Неси (Ненецкий АО, Россия) (98 км)
Погода в Мезене (Архангельская область, Россия) (122 км)
Погода в Каневке (Мурманская область, Россия) (131 км)
Погода в Пялице (Мурманская область, Россия) (144 км)
Погода в Шойне (Ненецкий АО, Россия) (148 км)
Погода в Кепино (Архангельская область, Россия) (152 км)
Погода в Зимнегорском Маяке (Архангельская область, Россия) (187 км)
Погода в Иоканьге (Мурманская область, Россия) (195 км)

Пояснения к столбцам:

Ветер - указаны скорость ветра в м/с - средняя за 10 мин, порывы в срок и между сроками (в фигурных скобках) и направление, откуда дует ветер: С - северный, СВ - северо-восточный, В - восточный, ЮВ - юго-восточный, Ю - южный, ЮЗ - юго-западный, З - западный, СЗ - северо-западный.
Видимость - горизонтальная дальность видимости в метрах или километрах. При видимости от 1 до 10 км при отсутствии осадков обычно наблюдается дымка, при ухудшении видимости до 1 км и менее - туман. В сухую погоду видимость может ухудшаться дымом, пылью или мглою.
Явления - указаны атмосферные явления, наблюдавшиеся в срок или в последний час перед сроком; фигурными скобками обозначены явления, наблюдавшиеся между сроками (за 1-3 часа до срока); квадратными скобками обозначены град или гололедные отложения с указанием их диаметра в мм.
Облачность - указаны через наклонную черту общая и нижняя облачность в баллах и высота нижней границы облаков в метрах; квадратными скобками обозначены формы облаков: Ci - перистые, Cs - перисто-слоистые, Cc - перисто-кучевые, Ac - высококучевые, As - высокослоистые, Sc - слоисто-кучевые, Ns - слоисто-дождевые, Cu - кучевые, Cb - кучево-дождевые. Подробнее классификацию облаков см. в Атласе облаков (PDF).
T - Температура воздуха - температура, измеренная на высоте 2 м над землей.
Td - Температура точки росы - температура, при понижении до которой содержащийся в воздухе водяной пар достигнет насыщения.
f - Относительная влажность воздуха - влажноcть воздуха, измеренная на высоте 2 м над землей.
Te - Эффективная температура - температура, которую ощущает одетый по сезону человек в тени. Характеристика душности погоды. При расчете учитывается влияние влажности воздуха и скорости ветра на теплоощущения человека.
Tes - Эффективная температура на солнце - температура, которую ощущает человек, с поправкой на солнечный нагрев. Характеристика знойности погоды. Зависит от высоты солнца над горизонтом, облачности и скорости ветра. Ночью, в пасмурную погоду, а также при ветре 12 м/с и более поправка равна нулю.
P - Атмосферное давление - приведенное к уровню моря атмосферное давление.
Po - Атмосферное давление - измеренное на уровне метеостанции атмосферное давление.
Tmin - Минимальная температура - минимум температуры воздуха на высоте 2 м над землей.
Tmax - Максимальная температура - максимум температуры воздуха на высоте 2 м над землей.
R - Количество осадков - Количество выпавших осадков за период времени, мм. При наведении курсора мыши на число - период времени, за который выпало указанное количество осадков.
R24 - Количество осадков - Количество выпавших осадков за 24 часа, мм.
S - Снежный покров - Высота снежного покрова, см. При наведении курсора мыши на число - состояние снежного покрова и степень покрытия местности в баллах.